Hovedside
METAR-TAF:

METAR-TAF

Lufthavner :

Leknes lufthavn

Leknes, Norge

breddegrad: 68-09N, lengdegrad: 013-37E, høyde over havet: 2 m

Gjeldene værobservasjon

Denne rapporten ble laget for 1 time og 32 minutter siden, klokken 22:20 UTC
Vind 8 kt fra Sør-sørvest
Temperatur 5°C
Luftfuktighet 93%
Trykk 1027 hPa
Sikt 10 km eller mer
Spredte skyer i en høyde av 2000 ft
Brutte skyer i en høyde av 3000 ft
lett regn

METAR: ENLK 132220Z 20008KT 9999 -RA SCT020 BKN030 05/04 Q1027

Tid: 00:52 (23:52 UTC)


TAF: fraværende

Værobservasjoner og værvarsel for over 4000 flyplasser (METAR- og TAF-rapporter).

Tilgjengelige stasjoner er representert av de røde og gule prikkene på kartet.

Hold musepekeren over prikken for å se navnet på stasjonen.

Klikk så for å se værobservasjoner og -varsler.

For å forandre kartet kan du klikke på den grønne knappen med svart kryss for å zoome inn, på den grønne knappen med strek for å zoome ut, eller på de grønne pilene for å se tilstøtende kart.


METAR-TAF: